[[{"header":{"parameterUnit":"m.s-1","parameterCategory":1,"la1":30.2991,"la2":30.254,"lo1":-89.0895,"lo2":-89.0444,"dy":0.0017,"dx":0.0017,"nx":28,"ny":28,"refTime":"2023-09-07T21:00:00:Z","depth":0,"parameterNumber":2,"parameterNumberName":"U-component_of_WINDS"},"data":[0,0,0,0,0,0,0,0,0,0,0,0,0,0,0,0,0,0,0,0,0,0,0,0,0,0,0,0,0,0,0,0,0,0,0,0,0,0,0,0,0,0,0,0,0,0,0,0,0,0,0,0,0,0,0,0,0,0,-1.2054,-1.2053,0,-1.1968,-1.1967,-1.1966,-1.2014,-1.2017,-1.2019,-1.2021,-1.1923,-1.1918,-1.1913,0,0,0,0,0,0,0,0,0,0,0,0,0,-1.2251,-1.2247,-1.2054,-1.2053,-1.2052,-1.1968,-1.1967,-1.1966,-1.2014,-1.2017,-1.202,-1.2022,-1.1924,-1.1919,-1.1913,0,0,0,0,0,0,0,0,0,0,0,0,0,-1.2165,-1.2245,-1.2055,-1.2066,-1.2067,-1.1968,-1.1967,-1.1965,-1.2013,-1.2017,-1.202,-1.2024,-1.1926,-1.1919,-1.1912,-1.1795,0,0,-1.189,-1.1887,0,0,0,0,0,0,0,0,-1.2169,-1.2157,-1.2066,-1.2065,-1.2065,-1.2006,-1.2,-1.1908,-1.2012,-1.2033,-1.2021,-1.2025,-1.1947,-1.1938,-1.1914,-1.179,-1.1786,-1.1889,-1.1885,-1.1882,-1.1879,0,0,0,0,0,0,0,-1.2175,-1.2161,-1.202,-1.2064,-1.2064,-1.2072,-1.2064,-1.1983,-1.197,-1.2031,-1.2035,-1.2024,-1.1947,-1.1921,-1.1912,-1.1784,-1.1889,-1.1883,-1.1878,-1.1875,-1.1556,-1.1552,0,0,0,0,0,0,-1.2182,-1.2166,-1.2023,-1.2017,-1.2128,-1.2066,-1.2057,-1.2021,-1.1971,-1.1968,-1.2021,-1.2027,-1.1931,-1.192,-1.1908,-1.1764,-1.1882,-1.1875,-1.1871,-1.156,-1.1555,-1.155,0,0,0,0,0,0,-1.2186,-1.2169,-1.2026,-1.2093,-1.2075,-1.2059,-1.2018,-1.2017,-1.1991,-1.1964,-1.1961,-1.1997,-1.1934,-1.1919,-1.1822,-1.1761,-1.1871,-1.1865,-1.1565,-1.1558,-1.1552,-1.1476,0,0,0,0,0,0,-1.2191,-1.217,-1.2127,-1.2091,-1.2072,-1.1944,-1.2015,-1.2013,-1.1979,-1.1986,-1.194,-1.1936,-1.1935,-1.1833,-1.1815,-1.1753,-1.1859,-1.157,-1.1562,-1.1554,-1.1484,-1.1468,-1.1455,0,0,0,0,0,-1.2198,-1.2108,-1.2125,-1.2107,-1.2019,-1.1941,-1.1929,-1.1933,-1.1974,-1.1929,-1.1912,-1.1937,-1.1772,-1.1823,-1.1803,-1.1738,-1.1574,-1.1564,-1.1555,-1.149,-1.1471,-1.1455,0,0,0,0,0,0,-1.2134,-1.2103,-1.2122,-1.2018,-1.1982,-1.1949,-1.1893,-1.1913,-1.1862,-1.1869,-1.1874,-1.1863,-1.1762,-1.1741,-1.1798,-1.162,-1.1679,-1.1665,-1.1636,-1.1618,-1.1603,-1.1608,-1.1853,0,0,0,0,0,-1.2108,-1.2051,-1.2027,-1.1937,-1.1918,-1.1909,-1.1875,-1.1881,-1.1843,-1.1826,-1.1802,-1.1761,-1.1699,-1.1658,-1.1601,-1.1483,-1.1471,-1.1428,-1.1414,-1.1402,-1.1388,-1.132,-1.1299,-1.152,-1.152,-1.152,0,0,-1.2053,-1.203,-1.1992,-1.1923,-1.1896,-1.1832,-1.1895,-1.1826,-1.1778,-1.1815,-1.1722,-1.1703,-1.1657,-1.1548,-1.1499,-1.1528,-1.1325,-1.139,-1.1381,-1.1373,-1.1308,-1.1287,-1.1268,-1.1514,-1.1515,-1.1516,0,0,-1.1919,-1.1898,-1.182,-1.1792,-1.1751,-1.1745,-1.1726,-1.169,-1.1679,-1.1588,-1.1613,-1.1555,-1.145,-1.1415,-1.1383,-1.1237,-1.1256,-1.1218,-1.1139,-1.1072,-1.1055,-1.1039,-1.0982,-1.0962,-1.1205,-1.1205,-1.1205,0,-1.1854,-1.1764,-1.1776,-1.1704,-1.1671,-1.1706,-1.1624,-1.1595,-1.1536,-1.151,-1.1545,-1.1412,-1.1384,-1.1266,-1.123,-1.1205,-1.1179,-1.122,-1.1057,-1.1042,-1.1027,-1.0972,-1.0951,-1.12,-1.1201,-1.1202,-1.1202,0,-1.1684,-1.162,-1.1561,-1.1506,-1.1466,-1.139,-1.1387,-1.1345,-1.1355,-1.1345,-1.1248,-1.1216,-1.1151,-1.1124,-1.1133,-1.1006,-1.1024,-1.1058,-1.1116,-1.1001,-1.0949,-1.0929,-1.1194,-1.1195,-1.1197,-1.1198,0,0,-1.1503,-1.1457,-1.1434,-1.1408,-1.1366,-1.1315,-1.1239,-1.1179,-1.114,-1.1099,-1.1031,-1.0942,-1.0973,-1.0937,-1.0942,-1.0884,-1.0764,-1.0924,-1.0923,-1.0891,-1.0616,-1.0587,-1.0563,-1.0779,-1.0775,-1.0772,-1.0618,0,-1.1363,-1.1233,-1.1241,-1.1117,-1.1055,-1.1088,-1.1021,-1.0986,-1.0974,-1.0918,-1.0904,-1.0839,-1.0887,-1.0864,-1.081,-1.079,-1.0708,-1.0802,-1.0711,-1.0707,-1.0716,-1.0537,-1.0506,-1.0362,-1.0599,-1.0595,-1.0593,0,-1.1181,-1.1135,-1.1005,-1.0971,-1.0945,-1.0885,-1.0828,-1.0776,-1.0735,-1.0731,-1.0691,-1.0706,-1.0624,-1.0689,-1.0574,-1.0638,-1.0602,-1.0586,-1.0581,-1.0567,-1.0639,-1.0513,-1.0317,-1.0293,-1.0562,-1.0564,-1.0567,0,-1.1055,-1.0962,-1.0871,-1.0849,-1.0808,-1.0764,-1.0744,-1.0708,-1.067,-1.062,-1.0594,-1.0535,-1.05,-1.0452,-1.0448,-1.0497,-1.033,-1.0396,-1.0319,-1.0319,-1.0278,-1.0279,-1.0067,-1.0264,-1.0265,-1.0265,-1.0265,0,-1.0894,-1.0812,-1.0814,-1.0758,-1.0665,-1.0676,-1.0583,-1.0567,-1.0534,-1.0472,-1.0498,-1.0438,-1.044,-1.0378,-1.0375,-1.0277,-1.0263,-1.0253,-1.0251,-1.0247,-1.0247,-1.0219,-1.0226,-1.0259,-1.0261,-1.0262,-1.0263,0,-1.0736,-1.0735,-1.0638,-1.0608,-1.0598,-1.0531,-1.0503,-1.0447,-1.044,-1.036,-1.0342,-1.0327,-1.0256,-1.0249,-1.0166,-1.0164,-1.0043,-1.0056,-1.0057,-1.0057,-0.9979,-0.9984,-0.9736,-0.9701,-0.9926,-0.9924,-0.9923,0,-1.0631,-1.0568,-1.0532,-1.0494,-1.0472,-1.0411,-1.0373,-1.038,-1.0339,-1.0288,-1.0237,-1.0169,-1.0114,-0.9998,-0.9977,-0.9913,-0.992,-0.9838,-0.991,-0.9906,-0.9912,-0.9913,-0.9904,-0.9822,-0.9819,-0.9817,-0.9816,0,-1.0441,-1.0444,-1.0391,-1.0336,-1.029,-1.0247,-1.0206,-1.0173,-1.0175,-1.0126,-1.0055,-1.0013,-0.9929,-0.9859,-0.9796,-0.9771,-0.979,-0.9794,-0.9772,-0.9763,-0.9764,-0.9756,-1.0013,-0.9798,-0.98,-0.9801,-0.9802,-0.9803,-1.0302,-1.0247,-1.0213,-1.0151,-1.0122,-1.0083,-1.0029,-1.0015,-0.9957,-0.9891,-0.9899,-0.9818,-0.9777,-0.9695,-0.9665,-0.96,-0.9627,-0.9596,-0.9587,-0.9577,-0.9567,-0.978,-0.9589,-0.959,-0.959,-0.959,-0.9591,0,-1.0109,-1.0089,-1.0033,-0.9976,-0.9927,-0.9957,-0.9913,-0.9868,-0.9798,-0.976,-0.9706,-0.9622,-0.9555,-0.953,-0.9463,-0.9415,-0.9422,-0.9396,-0.9396,-0.9389,-0.9549,-0.9573,-0.9391,-0.9391,-0.9391,-0.9391,-0.9391,-0.9391,-1.0002,-0.9909,-0.9908,-0.98,-0.978,-0.9704,-0.9675,-0.9638,-0.9608,-0.9514,-0.9459,-0.9445,-0.941,-0.9341,-0.9279,-0.9273,-0.9244,-0.9213,-0.921,-0.9359,-0.9378,-0.9397,-0.9419,-0.9208,-0.9208,-0.9054,-0.9053,-0.9052]},{"header":{"parameterUnit":"m.s-1","parameterCategory":1,"la1":30.2991,"la2":30.254,"lo1":-89.0895,"lo2":-89.0444,"dy":0.0017,"dx":0.0017,"nx":28,"ny":28,"refTime":"2023-09-07T21:00:00:Z","depth":0,"parameterNumber":3,"parameterNumberName":"V-component_of_WINDS"},"data":[0,0,0,0,0,0,0,0,0,0,0,0,0,0,0,0,0,0,0,0,0,0,0,0,0,0,0,0,0,0,0,0,0,0,0,0,0,0,0,0,0,0,0,0,0,0,0,0,0,0,0,0,0,0,0,0,0,0,-0.4105,-0.4105,0,-0.4107,-0.4107,-0.4107,-0.4191,-0.4193,-0.4195,-0.4197,-0.4197,-0.4195,-0.4193,0,0,0,0,0,0,0,0,0,0,0,0,0,-0.417,-0.4169,-0.4105,-0.4105,-0.4105,-0.4107,-0.4107,-0.4107,-0.419,-0.4193,-0.4196,-0.4198,-0.4198,-0.4195,-0.4193,0,0,0,0,0,0,0,0,0,0,0,0,0,-0.4154,-0.4168,-0.4105,-0.4147,-0.4151,-0.4107,-0.4107,-0.4107,-0.419,-0.4193,-0.4196,-0.4199,-0.4199,-0.4196,-0.4193,-0.4109,0,0,-0.4183,-0.4182,0,0,0,0,0,0,0,0,-0.4155,-0.4152,-0.4141,-0.4144,-0.4148,-0.4152,-0.4131,-0.4108,-0.4189,-0.4175,-0.4197,-0.4201,-0.4179,-0.4178,-0.4171,-0.4109,-0.4109,-0.4183,-0.4181,-0.418,-0.4179,0,0,0,0,0,0,0,-0.4156,-0.4152,-0.4106,-0.414,-0.4145,-0.4165,-0.4166,-0.4127,-0.4159,-0.4176,-0.4182,-0.4182,-0.4182,-0.4174,-0.4172,-0.4109,-0.4183,-0.4181,-0.4179,-0.4178,-0.3977,-0.3974,0,0,0,0,0,0,-0.4152,-0.4152,-0.4106,-0.4106,-0.416,-0.4161,-0.4162,-0.4147,-0.4159,-0.4164,-0.4179,-0.4185,-0.4178,-0.4175,-0.4172,-0.4074,-0.418,-0.4177,-0.4176,-0.398,-0.3976,-0.3972,0,0,0,0,0,0,-0.4153,-0.4147,-0.4106,-0.4131,-0.4127,-0.4156,-0.4139,-0.4146,-0.4138,-0.4161,-0.4167,-0.4165,-0.418,-0.4177,-0.4124,-0.4075,-0.4176,-0.4173,-0.3985,-0.3979,-0.3974,-0.3876,0,0,0,0,0,0,-0.4154,-0.4147,-0.4115,-0.413,-0.4125,-0.4057,-0.4136,-0.4143,-0.4133,-0.4141,-0.415,-0.4154,-0.4182,-0.4128,-0.4121,-0.4073,-0.4171,-0.3989,-0.3982,-0.3976,-0.3884,-0.3868,-0.3855,0,0,0,0,0,-0.4156,-0.4088,-0.4113,-0.4107,-0.4087,-0.4054,-0.4052,-0.4086,-0.4128,-0.4097,-0.4112,-0.4154,-0.4082,-0.4122,-0.4115,-0.4065,-0.3992,-0.3984,-0.3976,-0.3891,-0.3871,-0.3855,0,0,0,0,0,0,-0.4066,-0.409,-0.4119,-0.4053,-0.4051,-0.4069,-0.403,-0.4065,-0.4051,-0.4059,-0.4102,-0.4103,-0.4044,-0.405,-0.4094,-0.3984,-0.4045,-0.4035,-0.3982,-0.3964,-0.3949,-0.3948,-0.4168,0,0,0,0,0,-0.4039,-0.4011,-0.4033,-0.3973,-0.397,-0.4,-0.3987,-0.4014,-0.4013,-0.4013,-0.4024,-0.4021,-0.3998,-0.3982,-0.3962,-0.3886,-0.3888,-0.3848,-0.3834,-0.3822,-0.3812,-0.3771,-0.3753,-0.3946,-0.3946,-0.3947,0,0,-0.3981,-0.3991,-0.397,-0.3955,-0.3956,-0.3925,-0.3999,-0.3963,-0.394,-0.4007,-0.3958,-0.3966,-0.3966,-0.3901,-0.3873,-0.3904,-0.3759,-0.3812,-0.3802,-0.3799,-0.3761,-0.3742,-0.3726,-0.3941,-0.3942,-0.3943,0,0,-0.386,-0.3866,-0.3815,-0.3815,-0.3817,-0.3838,-0.3826,-0.3838,-0.3846,-0.3798,-0.3847,-0.382,-0.378,-0.3777,-0.3771,-0.3649,-0.3687,-0.3642,-0.3565,-0.3524,-0.3509,-0.3496,-0.345,-0.3434,-0.3633,-0.3632,-0.3632,0,-0.3788,-0.3744,-0.3784,-0.3745,-0.3736,-0.3797,-0.3745,-0.3743,-0.3738,-0.373,-0.3766,-0.3716,-0.372,-0.3654,-0.3625,-0.3618,-0.3604,-0.364,-0.3508,-0.3495,-0.3483,-0.344,-0.3423,-0.3627,-0.3627,-0.3628,-0.3628,0,-0.3654,-0.3623,-0.3582,-0.3576,-0.3563,-0.3518,-0.355,-0.3532,-0.356,-0.3577,-0.3526,-0.3534,-0.3516,-0.3503,-0.353,-0.3441,-0.346,-0.3501,-0.3562,-0.3458,-0.3419,-0.3403,-0.3619,-0.3621,-0.3622,-0.3624,0,0,-0.3474,-0.3492,-0.3476,-0.3473,-0.3481,-0.3457,-0.3414,-0.3398,-0.338,-0.3375,-0.3339,-0.3304,-0.3342,-0.3335,-0.3362,-0.3327,-0.3228,-0.3373,-0.3373,-0.3343,-0.3128,-0.3095,-0.3076,-0.3254,-0.3252,-0.3249,-0.3128,0,-0.3356,-0.3284,-0.3319,-0.3243,-0.3214,-0.3271,-0.3234,-0.3234,-0.3248,-0.3225,-0.3242,-0.3215,-0.3269,-0.3264,-0.3232,-0.3247,-0.3185,-0.3257,-0.322,-0.3218,-0.3215,-0.3055,-0.302,-0.2905,-0.3113,-0.311,-0.3108,0,-0.3207,-0.3196,-0.3116,-0.3128,-0.3118,-0.3083,-0.307,-0.3048,-0.3049,-0.3062,-0.3054,-0.309,-0.3048,-0.3111,-0.3053,-0.3101,-0.3089,-0.3094,-0.309,-0.3086,-0.3154,-0.3044,-0.2869,-0.2851,-0.3085,-0.3087,-0.3088,0,-0.308,-0.3046,-0.2994,-0.2991,-0.3004,-0.2978,-0.2982,-0.2987,-0.2974,-0.2963,-0.2955,-0.2939,-0.2929,-0.2916,-0.2946,-0.299,-0.2883,-0.2949,-0.2891,-0.289,-0.2864,-0.2865,-0.2682,-0.286,-0.286,-0.2861,-0.2861,0,-0.2942,-0.2891,-0.2937,-0.2904,-0.2849,-0.289,-0.2833,-0.2844,-0.2847,-0.2817,-0.2867,-0.2837,-0.288,-0.2855,-0.2879,-0.2826,-0.2822,-0.283,-0.2837,-0.2824,-0.2823,-0.2814,-0.2822,-0.2856,-0.2857,-0.2858,-0.2859,0,-0.279,-0.282,-0.2766,-0.2783,-0.2787,-0.2744,-0.2759,-0.2729,-0.2748,-0.2709,-0.2702,-0.2731,-0.2704,-0.2733,-0.2708,-0.2724,-0.2653,-0.2672,-0.2652,-0.2656,-0.2596,-0.26,-0.2399,-0.2374,-0.2571,-0.2569,-0.2567,0,-0.2699,-0.2661,-0.2674,-0.2658,-0.2659,-0.2633,-0.262,-0.266,-0.2644,-0.2643,-0.2613,-0.259,-0.2573,-0.2527,-0.2545,-0.2526,-0.2544,-0.2475,-0.2541,-0.2529,-0.2539,-0.254,-0.2536,-0.246,-0.2458,-0.2456,-0.2454,0,-0.2533,-0.2549,-0.253,-0.2515,-0.2499,-0.2489,-0.2483,-0.2466,-0.2508,-0.2488,-0.2461,-0.2448,-0.2423,-0.2399,-0.2385,-0.2389,-0.2427,-0.2434,-0.2419,-0.2404,-0.2393,-0.2395,-0.2612,-0.2437,-0.2439,-0.244,-0.2441,-0.2442,-0.2406,-0.2375,-0.2379,-0.2355,-0.2355,-0.2348,-0.2321,-0.2336,-0.2315,-0.2297,-0.2323,-0.2288,-0.229,-0.2276,-0.2275,-0.2248,-0.2277,-0.2256,-0.2251,-0.2244,-0.2234,-0.24,-0.2246,-0.2247,-0.2247,-0.2248,-0.2248,0,-0.224,-0.2246,-0.2224,-0.2214,-0.2195,-0.2236,-0.2231,-0.2212,-0.2181,-0.218,-0.2163,-0.2132,-0.2109,-0.2126,-0.2106,-0.2081,-0.2098,-0.2075,-0.2075,-0.2075,-0.221,-0.2224,-0.2061,-0.2061,-0.2061,-0.2061,-0.2061,-0.2061,-0.2152,-0.2099,-0.2116,-0.2064,-0.2071,-0.2038,-0.2032,-0.2025,-0.2024,-0.1987,-0.1968,-0.198,-0.1986,-0.1967,-0.1947,-0.1953,-0.1942,-0.1911,-0.1923,-0.2048,-0.2066,-0.2083,-0.2096,-0.191,-0.1909,-0.179,-0.1789,-0.1788]}]]